Date,TemperatureHighF,TemperatureAvgF,TemperatureLowF,DewpointHighF,DewpointAvgF,DewpointLowF,HumidityHigh,HumidityAvg,HumidityLow,PressureMaxIn,PressureMinIn,WindSpeedMaxMPH,WindSpeedAvgMPH,GustSpeedMaxMPH,PrecipitationSumIn
2013-2-1,43.7,26.6,13.4,20.3,13.8,7.4,80,60,36,30.64,30.36,5,1,11,0.00
2013-2-2,52.3,39.7,27.7,34.2,27.3,18.8,75,62,46,30.43,30.34,6,1,12,0.00
2013-2-3,53.0,44.4,34.4,30.7,27.9,23.6,76,53,35,30.44,30.09,7,2,21,0.00
2013-2-4,61.3,49.9,38.4,47.3,37.1,28.5,81,62,41,30.09,29.95,16,5,25,0.05
2013-2-5,63.5,47.1,33.8,49.1,35.7,30.1,88,68,35,30.19,30.04,6,1,15,0.00
2013-2-6,65.2,51.7,41.5,44.5,37.9,32.7,77,60,44,30.22,30.05,11,5,19,0.00
2013-2-7,55.5,51.3,43.0,52.0,47.5,39.1,90,87,77,30.23,29.98,9,5,21,0.10
2013-2-8,51.5,41.6,33.5,39.0,33.3,29.8,87,74,49,30.43,30.23,8,2,16,0.00
2013-2-9,47.8,41.4,35.2,43.9,34.9,31.0,89,78,57,30.35,29.92,15,7,27,0.12
2013-2-10,59.0,52.1,39.6,51.2,38.5,27.8,89,63,35,30.17,29.75,14,8,23,0.08
2013-2-11,50.3,38.8,29.2,29.5,27.0,24.1,83,64,39,30.35,30.17,5,1,14,0.00
2013-2-12,45.9,38.0,33.2,35.1,30.1,25.9,90,74,54,30.30,30.06,7,1,13,0.07
2013-2-13,50.8,39.2,33.7,38.4,33.2,30.6,92,80,52,30.17,30.08,8,2,14,0.13
2013-2-14,55.3,43.4,31.1,37.2,32.1,26.0,83,66,47,30.32,30.10,6,2,15,0.00
2013-2-15,43.5,33.6,23.0,32.0,22.2,15.3,82,64,39,30.50,30.32,9,3,19,0.00
2013-2-16,31.4,29.0,23.5,25.7,23.3,17.9,86,79,67,30.47,30.44,7,2,22,0.00
2013-2-17,63.6,48.5,31.2,35.9,28.0,16.2,63,46,32,30.28,29.93,14,7,22,0.00
2013-2-18,58.9,50.3,34.3,53.5,39.6,25.6,86,67,44,30.26,29.71,21,12,31,0.07
2013-2-19,43.7,33.7,21.6,25.8,22.1,16.8,88,64,43,30.49,30.26,8,2,17,0.00
2013-2-20,36.6,32.2,28.8,31.3,22.8,14.5,88,69,50,30.47,30.22,7,2,16,0.09
2013-2-21,36.8,33.9,30.4,34.4,30.7,26.1,91,88,82,30.22,29.83,11,3,18,0.02
2013-2-22,36.5,28.5,21.7,31.5,21.9,18.1,88,77,58,30.31,30.02,10,3,21,0.00
2013-2-23,45.0,31.1,20.1,26.7,22.3,17.4,90,72,45,30.29,30.13,5,0,9,0.00
2013-2-24,59.1,44.3,30.1,38.6,31.3,23.8,79,62,41,30.15,29.95,10,3,18,0.00
2013-2-25,42.5,38.9,35.0,36.8,33.6,30.5,92,82,65,30.01,29.58,12,5,24,0.60
2013-2-26,35.5,34.1,33.0,32.9,31.4,30.6,92,90,86,30.06,29.55,11,3,19,0.20
2013-2-27,39.5,34.8,32.4,32.9,29.9,27.2,89,82,72,30.25,30.03,11,3,22,0.05
2013-2-28,36.5,33.0,30.0,29.4,27.8,26.2,92,81,75,30.37,30.24,8,3,14,0.00